Fergus Falls, MN

2:43 PM CST on November 17, 2019 (GMT -0600)
Fergus Falls Municipal-Mickelson

Weather History for KFFM - September, 2019

Change the Weather History Date:

Tuesday, September 10, 2019

  Actual Average Record
Temperature  
Mean Temperature 62 °F -  
Max Temperature 66 °F 73 °F 95 °F (1998)
Min Temperature 57 °F 50 °F 32 °F (1955)
Degree Days  
Heating Degree Days 4    
Growing Degree Days 12 (Base 50)    
Moisture  
Dew Point 58 °F    
Average Humidity 90    
Maximum Humidity 100    
Minimum Humidity 68    
Precipitation  
Precipitation 0.00 in - - ()
Sea Level Pressure  
Sea Level Pressure 29.95 in    
Wind  
Wind Speed 6 mph ()    
Max Wind Speed 15 mph    
Max Gust Speed 20 mph    
Visibility 7.9 miles    
Events Fog , Rain    
Averages and records for this station are not official NWS values.
T = Trace of Precipitation, MM = Missing Value Source: Averaged Metar Reports

Daily Weather History Graph

Daily Weather History Graph

Search for Another Location

Airport or City:

Astronomy

Sep. 10, 2019 Rise Set
Actual Time 6:56 AM CDT 7:46 PM CDT
Civil Twilight 6:25 AM CDT 8:16 PM CDT
Nautical Twilight 5:49 AM CDT 8:52 PM CDT
Astronomical Twilight 5:11 AM CDT 9:30 PM CDT
Moon 6:36 PM CDT (9/10) 3:08 AM CDT (9/10)
Length of Visible Light 13h 51m
Length of Day
12h 50m
Waxing Gibbous, 89% of the Moon is Illuminated
Sep 10
Waxing Gibbous
Sep 13
Full
Sep 21
Last Quarter
Sep 28
New
Oct 5
First Quarter

Hourly Weather History & Observations

Time (CDT) Temp. Dew Point Humidity Pressure Visibility Wind Dir Wind Speed Gust Speed Precip Events Conditions
12:16 AM 62.6 °F 62.6 °F 100% 29.72 in 7.0 mi SSE 4.6 mph - N/A   Clear
12:35 AM 60.8 °F 60.8 °F 100% 29.73 in 1.2 mi Calm Calm - N/A   Mist
12:36 AM 60.8 °F 60.8 °F 100% 29.73 in 1.2 mi Calm Calm - N/A   Mist
12:58 AM 60.8 °F 60.8 °F 100% 29.74 in 0.5 mi South 4.6 mph - N/A Fog Fog
1:16 AM 60.8 °F 60.8 °F 100% 29.75 in 3.0 mi SW 3.5 mph - N/A   Mostly Cloudy
1:55 AM 60.8 °F 60.8 °F 100% 29.76 in 7.0 mi West 5.8 mph - N/A   Overcast
1:56 AM 60.8 °F 60.8 °F 100% 29.76 in 7.0 mi West 4.6 mph - N/A   Overcast
2:15 AM 62.6 °F 62.6 °F 100% 29.77 in 7.0 mi West 8.1 mph - N/A   Overcast
2:20 AM 60.8 °F 60.8 °F 100% 29.77 in 7.0 mi West 5.8 mph - N/A   Overcast
2:37 AM 60.8 °F 60.8 °F 100% 29.77 in 0.8 mi WSW 4.6 mph - N/A   Overcast
2:55 AM 62.6 °F 62.6 °F 100% 29.78 in 0.2 mi West 4.6 mph - N/A Fog Fog
3:15 AM 62.6 °F 62.6 °F 100% 29.78 in 0.2 mi WSW 4.6 mph - N/A Fog Fog
3:16 AM 62.6 °F 62.6 °F 100% 29.78 in 0.2 mi WSW 4.6 mph - N/A Fog Fog
3:35 AM 62.6 °F 62.6 °F 100% 29.79 in 0.5 mi West 6.9 mph - N/A Fog Fog
3:36 AM 62.6 °F 62.6 °F 100% 29.79 in 0.5 mi West 6.9 mph - N/A Fog Fog
3:58 AM 62.6 °F 62.6 °F 100% 29.80 in 3.0 mi WNW 12.7 mph 18.4 mph N/A   Overcast
4:16 AM 60.8 °F 60.8 °F 100% 29.80 in 10.0 mi West 15.0 mph - N/A   Overcast
4:36 AM 60.8 °F 60.8 °F 100% 29.81 in 10.0 mi WNW 10.4 mph - N/A   Overcast
4:55 AM 60.8 °F 60.8 °F 100% 29.82 in 10.0 mi WNW 10.4 mph - N/A   Overcast
4:56 AM 60.8 °F 60.8 °F 100% 29.82 in 10.0 mi WNW 11.5 mph - N/A   Overcast
5:15 AM 60.8 °F 60.8 °F 100% 29.83 in 10.0 mi WNW 11.5 mph - N/A   Overcast
5:19 AM 60.8 °F 60.8 °F 100% 29.83 in 10.0 mi WNW 13.8 mph 19.6 mph N/A   Overcast
5:38 AM 60.8 °F 60.8 °F 100% 29.83 in 10.0 mi WNW 13.8 mph 19.6 mph N/A   Overcast
5:56 AM 60.8 °F 60.8 °F 100% 29.85 in 10.0 mi West 8.1 mph - N/A   Overcast
6:15 AM 60.8 °F 60.8 °F 100% 29.86 in 10.0 mi West 10.4 mph - N/A   Overcast
6:16 AM 60.8 °F 60.8 °F 100% 29.86 in 10.0 mi West 10.4 mph - N/A   Overcast
6:35 AM 60.8 °F 60.8 °F 100% 29.87 in 10.0 mi NW 10.4 mph - N/A   Overcast
6:36 AM 60.8 °F 60.8 °F 100% 29.87 in 10.0 mi NW 10.4 mph - N/A   Overcast
6:58 AM 59.0 °F 59.0 °F 100% 29.88 in 10.0 mi WNW 11.5 mph 17.3 mph N/A   Overcast
7:17 AM 59.0 °F 59.0 °F 100% 29.88 in 3.0 mi WNW 12.7 mph - N/A   Overcast
7:36 AM 59.0 °F 59.0 °F 100% 29.88 in 2.5 mi WNW 8.1 mph - N/A   Overcast
7:55 AM 59.0 °F 59.0 °F 100% 29.89 in 2.0 mi WNW 8.1 mph - N/A   Overcast
7:56 AM 59.0 °F 59.0 °F 100% 29.89 in 2.0 mi WNW 8.1 mph - N/A   Overcast
8:15 AM 57.2 °F 57.2 °F 100% 29.90 in 4.0 mi NW 11.5 mph - N/A   Overcast
8:19 AM 57.2 °F 57.2 °F 100% 29.91 in 7.0 mi NW 11.5 mph - N/A   Overcast
8:38 AM 59.0 °F 59.0 °F 100% 29.92 in 2.0 mi WNW 10.4 mph - N/A   Overcast
8:55 AM 59.0 °F 59.0 °F 100% 29.92 in 10.0 mi WNW 10.4 mph - N/A   Overcast
9:15 AM 60.8 °F 60.8 °F 100% 29.94 in 7.0 mi WNW 10.4 mph - N/A   Overcast
9:35 AM 59.0 °F 59.0 °F 100% 29.94 in 7.0 mi WNW 10.4 mph - N/A   Overcast
9:55 AM 59.0 °F 59.0 °F 100% 29.95 in 10.0 mi WNW 6.9 mph - N/A   Overcast
10:18 AM 60.8 °F 59.0 °F 94% 29.96 in 5.0 mi WNW 6.9 mph - N/A   Overcast
10:36 AM 59.0 °F 59.0 °F 100% 29.96 in 3.0 mi NW 8.1 mph - N/A   Overcast
10:55 AM 60.8 °F 60.8 °F 100% 29.97 in 2.5 mi WNW 6.9 mph - N/A   Overcast
10:56 AM 60.8 °F 60.8 °F 100% 29.97 in 3.0 mi West 5.8 mph - N/A   Overcast
11:15 AM 60.8 °F 60.8 °F 100% 29.98 in 5.0 mi WNW 6.9 mph - N/A   Overcast
11:16 AM 60.8 °F 60.8 °F 100% 29.98 in 5.0 mi WNW 5.8 mph - N/A   Overcast
11:35 AM 60.8 °F 60.8 °F 100% 29.98 in 10.0 mi West 8.1 mph - N/A   Overcast
11:39 AM 60.8 °F 60.8 °F 100% 29.98 in 10.0 mi WNW 9.2 mph - N/A   Overcast
11:58 AM 62.6 °F 59.0 °F 88% 29.99 in 10.0 mi WNW 11.5 mph - N/A   Overcast
12:16 PM 62.6 °F 57.2 °F 82% 29.99 in 10.0 mi West 10.4 mph - N/A   Overcast
12:35 PM 64.4 °F 57.2 °F 77% 29.99 in 10.0 mi WNW 10.4 mph - N/A   Mostly Cloudy
12:36 PM 64.4 °F 57.2 °F 77% 29.99 in 10.0 mi West 9.2 mph - N/A   Mostly Cloudy
12:55 PM 64.4 °F 57.2 °F 77% 30.00 in 10.0 mi West 9.2 mph - N/A   Overcast
12:56 PM 64.4 °F 57.2 °F 77% 30.00 in 10.0 mi WNW 10.4 mph - N/A   Overcast
1:18 PM 66.2 °F 57.2 °F 73% 30.00 in 10.0 mi West 13.8 mph 17.3 mph N/A   Overcast
1:36 PM 64.4 °F 57.2 °F 77% 30.02 in 10.0 mi WNW 11.5 mph - N/A   Overcast
1:55 PM 64.4 °F 57.2 °F 77% 30.02 in 10.0 mi WNW 9.2 mph - N/A   Overcast
1:56 PM 64.4 °F 57.2 °F 77% 30.02 in 10.0 mi WNW 9.2 mph - N/A   Overcast
2:15 PM 64.4 °F 57.2 °F 77% 30.02 in 10.0 mi NW 9.2 mph - N/A   Overcast
2:16 PM 64.4 °F 57.2 °F 77% 30.02 in 10.0 mi NNW 9.2 mph - N/A   Overcast
2:35 PM 64.4 °F 57.2 °F 77% 30.02 in 10.0 mi WNW 9.2 mph - N/A   Overcast
2:39 PM 66.2 °F 57.2 °F 73% 30.03 in 10.0 mi NW 9.2 mph - N/A   Overcast
2:57 PM 66.2 °F 57.2 °F 73% 30.02 in 10.0 mi NW 8.1 mph - N/A   Mostly Cloudy
3:35 PM 66.2 °F 57.2 °F 73% 30.02 in 10.0 mi North 8.1 mph - N/A   Mostly Cloudy
3:55 PM 66.2 °F 57.2 °F 73% 30.02 in 10.0 mi North 3.5 mph - N/A   Mostly Cloudy
4:18 PM 66.2 °F 57.2 °F 73% 30.02 in 10.0 mi NNW 4.6 mph - N/A   Scattered Clouds
4:36 PM 66.2 °F 57.2 °F 73% 30.03 in 10.0 mi North 5.8 mph - N/A   Mostly Cloudy
4:55 PM 66.2 °F 55.4 °F 68% 30.03 in 10.0 mi North 5.8 mph - N/A   Scattered Clouds
5:15 PM 66.2 °F 57.2 °F 73% 30.03 in 10.0 mi North 6.9 mph - N/A   Scattered Clouds
5:16 PM 66.2 °F 57.2 °F 73% 30.03 in 10.0 mi North 6.9 mph - N/A   Scattered Clouds
5:35 PM 66.2 °F 57.2 °F 73% 30.03 in 10.0 mi North 4.6 mph - N/A   Scattered Clouds
5:39 PM 66.2 °F 57.2 °F 73% 30.03 in 10.0 mi North 6.9 mph - N/A   Scattered Clouds
5:58 PM 66.2 °F 57.2 °F 73% 30.02 in 10.0 mi North 6.9 mph - N/A   Scattered Clouds
6:15 PM 64.4 °F 55.4 °F 73% 30.04 in 10.0 mi North 3.5 mph - N/A   Scattered Clouds
6:35 PM 64.4 °F 55.4 °F 73% 30.04 in 10.0 mi NNE 5.8 mph - N/A   Clear
6:36 PM 64.4 °F 55.4 °F 73% 30.04 in 10.0 mi NNE 4.6 mph - N/A   Clear
6:55 PM 62.6 °F 55.4 °F 77% 30.03 in 10.0 mi NNE 5.8 mph - N/A   Clear
6:56 PM 62.6 °F 55.4 °F 77% 30.03 in 10.0 mi NNE 4.6 mph - N/A   Clear
7:18 PM 62.6 °F 55.4 °F 77% 30.03 in 10.0 mi NNE 3.5 mph - N/A   Clear
7:37 PM 60.8 °F 55.4 °F 82% 30.05 in 10.0 mi North 4.6 mph - N/A   Clear
7:55 PM 60.8 °F 55.4 °F 82% 30.05 in 10.0 mi North 4.6 mph - N/A   Clear
8:15 PM 60.8 °F 55.4 °F 82% 30.07 in 10.0 mi NNE 4.6 mph - N/A   Clear
8:16 PM 60.8 °F 55.4 °F 82% 30.07 in 10.0 mi NNE 4.6 mph - N/A   Clear
8:35 PM 59.0 °F 55.4 °F 88% 30.07 in 10.0 mi NNE 4.6 mph - N/A   Clear
8:39 PM 59.0 °F 55.4 °F 88% 30.07 in 10.0 mi NE 4.6 mph - N/A   Clear
9:15 PM 59.0 °F 55.4 °F 88% 30.07 in 10.0 mi ENE 4.6 mph - N/A   Clear
9:35 PM 59.0 °F 55.4 °F 88% 30.09 in 10.0 mi Calm Calm - N/A   Clear
9:36 PM 59.0 °F 55.4 °F 88% 30.09 in 10.0 mi Calm Calm - N/A   Clear
9:55 PM 59.0 °F 55.4 °F 88% 30.10 in 10.0 mi ENE 3.5 mph - N/A   Clear
9:56 PM 59.0 °F 55.4 °F 88% 30.10 in 10.0 mi Calm Calm - N/A   Clear
10:18 PM 57.2 °F 55.4 °F 94% 30.09 in 10.0 mi ENE 3.5 mph - N/A   Clear
10:36 PM 57.2 °F 55.4 °F 94% 30.09 in 10.0 mi NE 5.8 mph - N/A   Clear
10:56 PM 57.2 °F 55.4 °F 94% 30.09 in 10.0 mi East 5.8 mph - N/A   Clear
11:15 PM 57.2 °F 53.6 °F 88% 30.09 in 10.0 mi East 5.8 mph - N/A   Clear
11:16 PM 57.2 °F 53.6 °F 88% 30.09 in 10.0 mi East 5.8 mph - N/A   Clear
11:39 PM 57.2 °F 53.6 °F 88% 30.10 in 10.0 mi East 6.9 mph - N/A Rain Light Rain
11:56 PM 57.2 °F 53.6 °F 88% 30.11 in 10.0 mi East 4.6 mph - N/A Rain Light Rain